Back to catalog

STARLINK-3699

AliveCommunicationsVLEO
NORAD 51966·PAYLOAD·🇺🇸 United States

Launched Mar 9, 2022 from Cape Canaveral Space Force Station

Loading…

Next Passes (next 24 hours)

TLE

FreshSource: CelesTrak SupGP

Epoch: Sep 14, 2026, 13:36 UTC

1 51966C 22025L   26257.56715278 -.00031977  00000+0 -10277-2 0  2575
2 51966  53.1575 237.9963 0001712  70.1701 147.6796 15.31735116    15

Track STARLINK-3699 in real time with AllMySat

Download on the App Store